Location: Mohawk View
(42.7837°N, 73.7885°W)
Time: 09:08:56
(UTC+00:00)

Meteor 1-24 Rocket - Pass Details

Date: 27 October 2021
Orbit: 790 x 927 km, 81.3° (Epoch: 27 November)

Event Time Altitude Azimuth Distance (km) Brightness Sun altitude
Rises 10:23:59 0° 198° (SSW) 3,283 6.7 -11.5°
Reaches altitude 10° 10:26:20 10° 201° (SSW) 2,367 5.9 -11.0°
Maximum altitude 10:31:37 62° 282° (WNW) 913 3.6 -10.1°
Drops below altitude 10° 10:37:06 10° 4° (N) 2,454 6.1 -9.1°
Sets 10:39:36 0° 8° (N) 3,413 6.8 -8.6°
